Zurück zum Katalog

FREGAT DEB

LostUNKNOWN
NORAD 45954·DEBRIS·🇷🇺 Russia

Gestartet Jul 18, 2011 von Baikonur Cosmodrome

Loading…

Nächste Überflüge (nächste 24 Stunden)

TLE

VeraltetSource: Space-Track

Epoche: Sep 22, 2023, 03:15 UTC

1 45954U 11037FK  23265.13568837  .00416870  00000-0  91866+0 0  9993
2 45954  51.5588  61.5860 1884875 163.7557 203.3253 10.55952450119175

Verfolge FREGAT DEB in Echtzeit mit AllMySat

Download on the App Store